Regional Weather Roundup
Issued by NWS

Home | Current Version | Previous Version | Text Only | Print | Product List | Glossary On
Versions: 1 2 3 4 5 6 7 8 9 10 11 12 13 14 15 16 17 18 19 20 21 22 23 24 25 26 27 28 29 30 31 32 33 34 35 36 37 38 39 40 41 42 43 44 45 46 47 48 49 50
000
ASUS43 KOAX 240602
RWRNE

WEATHER ROUNDUP FOR NEBRASKA
NATIONAL WEATHER SERVICE OMAHA NE
100 AM CDT MON APR 24 2017

NOTES: SATELLITE DATA IS BEING USED TO AUGMENT CLOUD COVER ABOVE
       12000 FEET.
       "FAIR" INDICATES FEW OR NO CLOUDS BELOW 12,000 FEET WITH NO
       SIGNIFICANT WEATHER AND/OR OBSTRUCTIONS TO VISIBILITY.

  * THESE STATIONS DO NOT REPORT WEATHER SUCH AS RAIN...SNOW OR FOG.

NEZ001>004-019>022-054>056-240700-
NEBRASKA PANHANDLE

CITY           SKY/WX    TMP DP  RH WIND       PRES   REMARKS
SCOTTSBLUFF    PTCLDY    55  38  52 SE14      29.58F
6HR MIN TEMP:  55; 6HR MAX TEMP:  75;

ALLIANCE       CLOUDY    53  39  59 S15       29.58F
6HR MIN TEMP:  50; 6HR MAX TEMP:  67;

CHADRON        PTCLDY    60  40  47 S7        29.57R
6HR MIN TEMP:  60; 6HR MAX TEMP:  70;

KIMBALL        CLOUDY    46  42  86 CALM      29.64F
SIDNEY         CLOUDY    52  41  66 SE3       29.63F
6HR MIN TEMP:  48; 6HR MAX TEMP:  66;

$$

NEZ057>060-069>072-079>082-240700-
SOUTHWEST NEBRASKA

CITY           SKY/WX    TMP DP  RH WIND       PRES   REMARKS
NORTH PLATTE   CLOUDY    56  32  40 SE16G26   29.67F
6HR MIN TEMP:  56; 6HR MAX TEMP:  68;

IMPERIAL       CLOUDY    54  37  52 SE18      29.63F
6HR MIN TEMP:  53; 6HR MAX TEMP:  68;

LEXINGTON      CLOUDY    54  35  48 S21       29.73F
MCCOOK         CLOUDY    55  34  45 S12G18    29.70F
6HR MIN TEMP:  55; 6HR MAX TEMP:  68;

OGALLALA       CLOUDY    52  38  59 NE3       29.64F
$$

NEZ005>010-023>029-035>040-094-240700-
NORTH CENTRAL NEBRASKA

CITY           SKY/WX    TMP DP  RH WIND       PRES   REMARKS
VALENTINE      CLOUDY    60  32  34 S21G32    29.61F
6HR MIN TEMP:  60; 6HR MAX TEMP:  72;

AINSWORTH      CLOUDY    55  33  44 S17       29.65F
BROKEN BOW     PTCLDY    54  34  46 S13G25    29.73F
6HR MIN TEMP:  54; 6HR MAX TEMP:  69;

O`NEILL        PTCLDY    56  32  38 S16       29.73F
ORD            CLOUDY    55  32  41 S14       29.74F
6HR MIN TEMP:  55; 6HR MAX TEMP:  68;

THEDFORD       CLOUDY    57  32  38 S17       29.66F
$$

NEZ041-046>049-061>064-073>077-083>087-240700-
SOUTH CENTRAL NEBRASKA

CITY           SKY/WX    TMP DP  RH WIND       PRES   REMARKS
GRAND ISLAND   CLOUDY    53  36  52 S21G28    29.80F
6HR MIN TEMP:  53; 6HR MAX TEMP:  66;

AURORA         CLOUDY    53  33  46 S16G24    29.81F
HASTINGS       CLOUDY    54  34  46 S14G21    29.81F
6HR MIN TEMP:  54; 6HR MAX TEMP:  66;

HEBRON         CLOUDY    53  35  51 S12       29.85F
HOLDREGE       CLOUDY    54  32  43 S18G25    29.77S
KEARNEY *      CLOUDY    54  32  43 S20       29.79S
YORK           PTCLDY    54  32  43 S15       29.83F
$$

NEZ011>018-030>034-042>045-240700-
NORTHEAST NEBRASKA

CITY           SKY/WX    TMP DP  RH WIND       PRES   REMARKS
NORFOLK        CLOUDY    54  32  43 S20G28    29.78F
6HR MIN TEMP:  54; 6HR MAX TEMP:  69;

ALBION         CLOUDY    54  34  46 S12       29.79F
BLAIR          CLOUDY    56  35  44 S14       29.87F
FREMONT        CLOUDY    55  33  44 S12       29.86F
TEKAMAH        CLOUDY    47  37  68 SE13      29.86F
6HR MIN TEMP:  47; 6HR MAX TEMP:  69;

WAYNE          CLOUDY    52  35  51 S15       29.81S
$$

NEZ050>053-065>068-078-088>093-240700-
SOUTHEAST NEBRASKA

CITY           SKY/WX    TMP DP  RH WIND       PRES   REMARKS
LINCOLN        CLOUDY    49  35  58 SE10      29.87F
6HR MIN TEMP:  48; 6HR MAX TEMP:  69;

OMAHA EPPLEY   CLOUDY    57  35  43 S10       29.88S
6HR MIN TEMP:  57; 6HR MAX TEMP:  71;

BEATRICE       CLOUDY    51  37  58 S8        29.88F
FALLS CITY     CLOUDY    52  37  56 S8        29.92F
6HR MIN TEMP:  51; 6HR MAX TEMP:  68;

NEBRASKA CITY  CLOUDY    52  31  44 S10       29.90F
PLATTSMOUTH    PTCLDY    56  30  37 S14       29.89S
$$

NEZ044-045-051>053-067-240700-
OMAHA AREA

CITY           SKY/WX    TMP DP  RH WIND       PRES   REMARKS
OMAHA EPPLEY   CLOUDY    57  35  43 S10       29.88S
6HR MIN TEMP:  57; 6HR MAX TEMP:  71;

BLAIR          CLOUDY    56  35  44 S14       29.87F
FREMONT        CLOUDY    55  33  44 S12       29.86F
MILLARD        CLOUDY    57  38  47 S6        29.88F
OFFUTT AFB     CLOUDY    47  36  63 SE6       29.88F
PLATTSMOUTH    PTCLDY    56  30  37 S14       29.89S
WAHOO          FAIR      46  34  63 SE8       29.86F
$$



USA.gov is the U.S. government's official web portal to all federal, state and local government web resources and services.